PHWVO EHAM-EHAM

Flight info

Callsign PHWVO
Flight time 0h 1m
Altitude 1500
Route VFR
Aircraft C172/L-SD/L1

Departure

Time 2026-05-06 17:04
Airport Amsterdam Airport Schiphol (EHAM)

Arrival

Time 2026-05-06 17:05
Airport Amsterdam Airport Schiphol (EHAM)
Time Latitude Longitude Altitude Speed Heading
2026-05-06 16:28 52.30022 4.78878 -6 ft 0 kts 133°
2026-05-06 16:39 52.30023 4.78881 -6 ft 1 kts 352°
2026-05-06 16:39 52.30030 4.78870 -6 ft 4 kts 313°
2026-05-06 16:39 52.30074 4.78800 -6 ft 10 kts 308°
2026-05-06 16:39 52.30055 4.78721 -6 ft 11 kts 215°
2026-05-06 16:40 52.30066 4.78583 -6 ft 14 kts 318°
2026-05-06 16:40 52.30122 4.78498 -6 ft 10 kts 329°
2026-05-06 16:40 52.30220 4.78603 -6 ft 42 kts 41°
2026-05-06 16:40 52.30541 4.79087 44 ft 75 kts 43°
2026-05-06 16:41 52.31009 4.79717 120 ft 96 kts 44°
2026-05-06 16:41 52.31380 4.80615 286 ft 103 kts 98°
2026-05-06 16:41 52.30889 4.81603 369 ft 116 kts 126°
2026-05-06 16:41 52.30435 4.81948 422 ft 127 kts 178°
2026-05-06 16:42 52.29919 4.81653 481 ft 130 kts 208°
2026-05-06 16:42 52.29687 4.80535 358 ft 109 kts 307°
2026-05-06 16:42 52.30149 4.79578 146 ft 105 kts 317°
2026-05-06 16:42 52.30657 4.79202 141 ft 80 kts 41°
2026-05-06 16:43 52.31097 4.79917 283 ft 92 kts 47°
2026-05-06 16:43 52.31205 4.80963 366 ft 106 kts 112°
2026-05-06 16:43 52.30575 4.81506 476 ft 115 kts 196°
2026-05-06 16:43 52.29916 4.80794 463 ft 111 kts 239°
2026-05-06 16:44 52.29973 4.79698 294 ft 94 kts 307°
2026-05-06 16:44 52.30435 4.79077 89 ft 75 kts
2026-05-06 16:44 52.30795 4.79452 -6 ft 54 kts 47°
2026-05-06 16:44 52.31088 4.79876 60 ft 67 kts 41°
2026-05-06 16:45 52.31388 4.80558 199 ft 89 kts 92°
2026-05-06 16:45 52.30962 4.81347 409 ft 101 kts 142°
2026-05-06 16:45 52.30271 4.80976 507 ft 121 kts 220°
2026-05-06 16:45 52.29660 4.79933 479 ft 123 kts 232°
2026-05-06 16:46 52.29597 4.78821 369 ft 98 kts 309°
2026-05-06 16:46 52.30122 4.78469 107 ft 85 kts 34°
2026-05-06 16:46 52.30518 4.79039 0 ft 62 kts 43°
2026-05-06 16:46 52.30721 4.79329 -6 ft 3 kts 39°
2026-05-06 16:47 52.30721 4.79330 -6 ft 0 kts 39°
2026-05-06 16:51 52.30729 4.79339 -6 ft 14 kts 37°
2026-05-06 16:51 52.30964 4.79686 40 ft 61 kts 48°
2026-05-06 16:52 52.31321 4.80236 199 ft 77 kts 54°
2026-05-06 16:52 52.31112 4.81057 321 ft 100 kts 131°
2026-05-06 16:52 52.30454 4.81043 521 ft 112 kts 208°
2026-05-06 16:52 52.29787 4.80244 572 ft 122 kts 216°
2026-05-06 16:53 52.29381 4.79250 436 ft 102 kts 285°
2026-05-06 16:53 52.29734 4.78426 246 ft 80 kts 334°
2026-05-06 16:53 52.30179 4.78542 30 ft 63 kts 46°
2026-05-06 16:53 52.30460 4.78970 -6 ft 53 kts 36°
2026-05-06 16:54 52.30769 4.79404 82 ft 62 kts 45°
2026-05-06 16:54 52.31153 4.79959 218 ft 82 kts 40°
2026-05-06 16:54 52.31250 4.80840 370 ft 101 kts 120°
2026-05-06 16:54 52.30661 4.81443 562 ft 113 kts 193°
2026-05-06 16:55 52.30014 4.80619 494 ft 118 kts 223°
2026-05-06 16:55 52.29903 4.79624 332 ft 87 kts 314°
2026-05-06 16:55 52.30277 4.79018 122 ft 62 kts 345°
2026-05-06 16:55 52.30603 4.79176 2 ft 40 kts 44°
2026-05-06 16:56 52.30850 4.79539 70 ft 52 kts 47°
2026-05-06 16:56 52.31159 4.79937 174 ft 69 kts 41°
2026-05-06 16:56 52.31173 4.80704 352 ft 85 kts 115°
2026-05-06 16:56 52.30774 4.81480 520 ft 102 kts 162°
2026-05-06 16:57 52.30121 4.81069 480 ft 98 kts 219°
2026-05-06 16:57 52.29826 4.80066 459 ft 101 kts 290°
2026-05-06 16:57 52.30250 4.79203 225 ft 95 kts 326°
2026-05-06 16:57 52.30736 4.79352 21 ft 72 kts 43°
2026-05-06 16:58 52.31053 4.79806 -6 ft 48 kts 41°
2026-05-06 16:58 52.31164 4.79965 -6 ft 0 kts 40°
2026-05-06 17:00 52.31182 4.79990 -6 ft 18 kts 36°
2026-05-06 17:00 52.31415 4.80366 45 ft 62 kts 73°
2026-05-06 17:00 52.31176 4.81005 193 ft 82 kts 135°
2026-05-06 17:00 52.30619 4.81233 356 ft 106 kts 223°
2026-05-06 17:01 52.30074 4.80250 370 ft 126 kts 224°
2026-05-06 17:01 52.29488 4.79201 441 ft 110 kts 262°
2026-05-06 17:01 52.29796 4.78289 167 ft 84 kts 349°
2026-05-06 17:01 52.30219 4.78625 5 ft 58 kts 43°
2026-05-06 17:02 52.30500 4.79030 -4 ft 64 kts 39°
2026-05-06 17:02 52.30841 4.79544 131 ft 75 kts 42°
2026-05-06 17:02 52.30800 4.80354 259 ft 97 kts 127°
2026-05-06 17:02 52.30256 4.80982 461 ft 110 kts 193°
2026-05-06 17:03 52.29692 4.80018 467 ft 126 kts 232°
2026-05-06 17:03 52.29632 4.78890 349 ft 93 kts 301°
2026-05-06 17:03 52.30047 4.78377 70 ft 72 kts 34°
2026-05-06 17:03 52.30367 4.78825 -6 ft 50 kts 43°
2026-05-06 17:04 52.30674 4.79265 102 ft 66 kts 43°
2026-05-06 17:04 52.30938 4.79928 298 ft 80 kts 97°
2026-05-06 17:04 52.30565 4.80697 502 ft 94 kts 140°
2026-05-06 17:04 52.29930 4.80265 605 ft 114 kts 220°
2026-05-06 17:05 52.29489 4.79174 584 ft 112 kts 284°
2026-05-06 17:05 52.29978 4.78383 226 ft 99 kts 11°
2026-05-06 17:05 52.30492 4.79001 8 ft 81 kts 43°
2026-05-06 17:05 52.30843 4.79507 -6 ft 42 kts 41°
2026-05-06 17:06 52.30904 4.79592 -6 ft 0 kts 40°
2026-05-06 17:08 52.30962 4.79674 -6 ft 39 kts 44°
2026-05-06 17:08 52.31279 4.80131 120 ft 69 kts 41°
2026-05-06 17:08 52.31383 4.80868 325 ft 85 kts 120°
2026-05-06 17:08 52.30873 4.81437 540 ft 99 kts 179°
2026-05-06 17:09 52.30282 4.80747 686 ft 113 kts 219°
2026-05-06 17:09 52.29720 4.79850 656 ft 106 kts 237°
2026-05-06 17:09 52.29726 4.78799 398 ft 91 kts 302°
2026-05-06 17:09 52.30156 4.78523 65 ft 75 kts 40°
2026-05-06 17:10 52.30488 4.79001 -6 ft 52 kts 44°
2026-05-06 17:10 52.30789 4.79420 99 ft 64 kts 45°
2026-05-06 17:10 52.31172 4.79979 228 ft 82 kts 44°
2026-05-06 17:10 52.31221 4.80858 384 ft 98 kts 124°
2026-05-06 17:11 52.30644 4.81249 577 ft 102 kts 209°
2026-05-06 17:11 52.30157 4.80451 615 ft 93 kts 239°
2026-05-06 17:11 52.30111 4.79441 337 ft 84 kts 311°
2026-05-06 17:11 52.30541 4.79075 54 ft 69 kts 38°
2026-05-06 17:12 52.30851 4.79514 -6 ft 47 kts 40°
2026-05-06 17:12 52.31164 4.79963 91 ft 71 kts 47°
2026-05-06 17:12 52.31271 4.80675 329 ft 79 kts 119°
2026-05-06 17:12 52.30794 4.81269 504 ft 101 kts 184°
2026-05-06 17:13 52.30193 4.80595 674 ft 106 kts 202°
2026-05-06 17:13 52.29488 4.80705 720 ft 108 kts 131°
2026-05-06 17:13 52.29631 4.81636 742 ft 101 kts 12°
2026-05-06 17:13 52.30136 4.80864 606 ft 117 kts 280°
2026-05-06 17:14 52.29716 4.79747 481 ft 115 kts 223°
2026-05-06 17:14 52.29723 4.78722 321 ft 89 kts 303°
2026-05-06 17:14 52.30161 4.78536 41 ft 69 kts 43°
2026-05-06 17:14 52.30474 4.78978 -6 ft 54 kts 41°
2026-05-06 17:15 52.30806 4.79453 135 ft 67 kts 46°
2026-05-06 17:15 52.30817 4.80206 296 ft 88 kts 128°
2026-05-06 17:15 52.30303 4.80821 502 ft 100 kts 158°
2026-05-06 17:15 52.29644 4.80362 640 ft 115 kts 219°
2026-05-06 17:16 52.29424 4.79294 513 ft 96 kts 305°
2026-05-06 17:16 52.29792 4.78488 268 ft 82 kts 328°
2026-05-06 17:16 52.30241 4.78644 18 ft 66 kts 43°
2026-05-06 17:16 52.30547 4.79081 -2 ft 62 kts 44°
2026-05-06 17:17 52.30893 4.79622 200 ft 72 kts 57°
2026-05-06 17:17 52.30693 4.80404 348 ft 95 kts 131°
2026-05-06 17:17 52.30056 4.80672 611 ft 92 kts 133°
2026-05-06 17:17 52.30091 4.81603 707 ft 95 kts 38°
2026-05-06 17:18 52.30732 4.81510 796 ft 114 kts 301°
2026-05-06 17:18 52.30247 4.80576 918 ft 123 kts 208°
2026-05-06 17:18 52.29612 4.79690 633 ft 113 kts 237°
2026-05-06 17:18 52.29732 4.78632 360 ft 94 kts 314°
2026-05-06 17:19 52.30228 4.78618 54 ft 75 kts 47°
2026-05-06 17:19 52.30556 4.79096 -6 ft 52 kts 45°
2026-05-06 17:19 52.30868 4.79568 150 ft 61 kts 44°
2026-05-06 17:19 52.30813 4.80283 337 ft 84 kts 137°
2026-05-06 17:20 52.30194 4.80434 490 ft 105 kts 218°
2026-05-06 17:20 52.29671 4.79528 560 ft 120 kts 236°
2026-05-06 17:20 52.29855 4.78440 295 ft 94 kts 335°
2026-05-06 17:20 52.30343 4.78791 28 ft 73 kts 45°
2026-05-06 17:21 52.30663 4.79251 -6 ft 58 kts 39°
2026-05-06 17:21 52.30981 4.79778 189 ft 68 kts 73°
2026-05-06 17:21 52.30713 4.80512 387 ft 85 kts 129°
2026-05-06 17:21 52.30146 4.80588 515 ft 109 kts 217°
2026-05-06 17:22 52.29584 4.79634 458 ft 122 kts 231°
2026-05-06 17:22 52.29711 4.78567 286 ft 88 kts 320°
2026-05-06 17:22 52.30187 4.78563 33 ft 69 kts 41°
2026-05-06 17:22 52.30486 4.79000 -6 ft 44 kts 30°
2026-05-06 17:23 52.30766 4.79430 106 ft 63 kts 49°
2026-05-06 17:23 52.30892 4.80102 176 ft 73 kts 108°
2026-05-06 17:23 52.30619 4.80919 278 ft 96 kts 127°
2026-05-06 17:23 52.30026 4.80809 392 ft 94 kts 222°
2026-05-06 17:24 52.29591 4.80041 404 ft 97 kts 226°
2026-05-06 17:24 52.29272 4.79094 311 ft 91 kts 284°
2026-05-06 17:24 52.29678 4.78268 209 ft 93 kts 340°
2026-05-06 17:24 52.30205 4.78610 28 ft 80 kts 45°
2026-05-06 17:25 52.30578 4.79135 -6 ft 64 kts 43°
2026-05-06 17:25 52.30959 4.79766 149 ft 80 kts 73°
2026-05-06 17:25 52.30626 4.80573 290 ft 100 kts 129°
2026-05-06 17:25 52.29966 4.80461 419 ft 121 kts 219°
2026-05-06 17:26 52.29448 4.79343 436 ft 116 kts 264°
2026-05-06 17:26 52.29780 4.78357 199 ft 95 kts 342°
2026-05-06 17:26 52.30300 4.78714 4 ft 76 kts 46°
2026-05-06 17:26 52.30632 4.79214 -6 ft 51 kts 41°
2026-05-06 17:27 52.30875 4.79551 -6 ft 41 kts 44°
2026-05-06 17:27 52.31071 4.79820 -6 ft 31 kts 45°
2026-05-06 17:27 52.31156 4.80070 -6 ft 20 kts 120°
2026-05-06 17:27 52.31111 4.80146 -6 ft 0 kts 136°
2026-05-06 17:28 52.31109 4.80149 -6 ft 3 kts 135°
2026-05-06 17:28 52.31062 4.80232 -6 ft 15 kts 135°
2026-05-06 17:28 52.31073 4.80339 -6 ft 2 kts 341°
2026-05-06 17:28 52.31097 4.80300 -6 ft 0 kts 309°
2026-05-06 17:29 52.31099 4.80297 -6 ft 0 kts 308°